Погода в Краснознаменском

Россия / Саратовская область     51°20′55″N   43°22′23″E
темп.,
°C
ветер,
м/с
пор.,
м/с
влажн.,
%
обл.,
%
осадки,
мм/ч
давл.,
гПа
погр.,
м
18 апреля, вс
вс1801:00+6ссз12840 0.0 102011
04:00+6юз11853 0.0 102010
07:00+6ююв11840 0.0 102010
10:00+11юз3366100 0.0 1020573
13:00+13зюз335295 0.0 10191487
16:00+14з224479 0.0 10191764
19:00+14зсз115167 0.0 101835
22:00+11зсз2258100 0.0 101813
19 апреля, пн
пн1901:00+10с2469100 0.0 101884
04:00+10ссв117099 0.0 101714
07:00+10вюв117299 0.1 101726
10:00+13ююв225447 0.3 1017699
13:00+15ююз2238100 0.0 10162154
16:00+16ю223680 0.0 10162064
19:00+14юв565696 0.0 1016554
22:00+10вюв248369 0.3 101899
20 апреля, вт
вт2001:00+10в588595 0.3 1018374
04:00+8в51090100 0.4 1018405
07:00+9в71289100 0.1 1017694
10:00+7в91586100 0.1 1018717
13:00+7в101882100 0.0 1017766
16:00+9вюв121977100 0.2 10141028
19:00+7вюв112087100 3.4 1013952
22:00+7вюв122384100 9.6 10111095
21 апреля, ср
ср2101:00+8юв132381100 5.9 10111059
04:00+9юв112088100 5.9 1010924
07:00+9ююв111991100 0.6 10111146
10:00+9ююв71491100 2.1 1012986
13:00+9ю81382100 0.3 1014989
16:00+10юз598053 0.6 1016565
19:00+10ю367854 0.1 1018314
22:00+9ю51185100 0.1 1020287
22 апреля, чт
чт2201:00+9ююв368927 0.3 1021124
04:00+7ю33945 0.4 102237
07:00+7ююз349350 0.0 1023111
10:00+11зюз34717 0.0 1024696
13:00+13зюз56525 0.0 10251418
16:00+14з454658 0.0 10241878
19:00+12сз345935 0.0 1026408
22:00+9с22695 0.0 102730